CW0003 Weather Reports


Display with metric or nautical units.
time (UTC)temp
F
wind
direction
speed
MPH
gust
MPH
rain 1hr
in
rain 24hr
in
rain mn
in
humidity
%
barometer
mb
20211023234624 48 0.0 0.0 0.00 0.00 0.00 73 1013.6
20211023233103 48 0.0 0.0 0.00 0.00 0.00 74 1013.3
20211023231538 49 0.0 0.0 0.00 0.00 0.00 74 1013.2
20211023230055 49 0.0 0.0 0.00 0.00 0.00 75 1013.1
20211023224523 49 0.0 0.0 0.00 0.00 0.00 77 1013.1
20211023223029 50 0.0 0.0 0.00 0.00 0.00 77 1013.0
20211023221503 50 0.0 0.0 0.00 0.00 0.00 78 1012.5
20211023220328 51 0.0 0.0 0.00 0.00 0.00 77 1012.4
20211023214622 51 0.0 0.0 0.00 0.00 0.00 75 1012.3
20211023213147 52 0.0 0.0 0.00 0.00 0.00 74 1012.1
20211023211542 53 0.0 0.0 0.00 0.00 0.00 69 1012.0
20211023210059 54 0.0 0.0 0.00 0.00 0.00 68 1011.8
20211023204544 55 222 1.0 4.0 0.00 0.00 0.00 66 1011.8
20211023203035 55 234 0.0 2.0 0.00 0.00 0.00 63 1011.5
20211023201536 55 360 2.0 9.0 0.00 0.00 0.00 62 1011.3
20211023200049 56 202 3.0 8.0 0.00 0.00 0.00 63 1011.0
20211023194524 56 211 1.0 7.0 0.00 0.00 0.00 61 1010.9
20211023193025 56 232 1.0 8.0 0.00 0.00 0.00 60 1010.8
20211023191512 56 261 2.0 9.0 0.00 0.00 0.00 62 1011.0
20211023190002 56 221 4.0 13.0 0.00 0.00 0.00 59 1010.9
20211023184642 56 245 2.0 11.0 0.00 0.00 0.00 60 1010.9
20211023183321 56 197 3.0 13.0 0.00 0.00 0.00 61 1010.9
20211023181604 56 221 2.0 10.0 0.00 0.00 0.00 60 1011.0
20211023180044 55 360 2.0 10.0 0.00 0.00 0.00 61 1010.9
20211023174658 55 196 2.0 10.0 0.00 0.00 0.00 61 1011.3
20211023173044 55 199 3.0 8.0 0.00 0.00 0.00 62 1011.6
20211023171637 55 230 2.0 11.0 0.00 0.00 0.00 61 1011.6
20211023170055 55 212 5.0 11.0 0.00 0.00 0.00 61 1011.8
20211023164523 54 240 2.0 7.0 0.00 0.00 0.00 66 1011.8
20211023163019 54 209 1.0 6.0 0.00 0.00 0.00 66 1012.3
20211023161515 54 162 1.0 6.0 0.00 0.00 0.00 67 1012.5
20211023160014 54 254 3.0 6.0 0.00 0.00 0.00 69 1012.9
20211023154615 53 232 1.0 7.0 0.00 0.00 0.00 72 1013.2
20211023153104 53 173 2.0 4.0 0.00 0.00 0.00 70 1013.2
20211023151634 52 15 1.0 5.0 0.00 0.00 0.00 71 1013.6
20211023150208 51 257 0.0 6.0 0.00 0.00 0.00 75 1013.5
20211023144609 50 261 0.0 5.0 0.00 0.00 0.00 73 1013.8
20211023143056 50 221 1.0 7.0 0.00 0.00 0.00 72 1013.6
20211023141533 50 21 4.0 7.0 0.00 0.00 0.00 73 1013.7
20211023140039 50 360 3.0 7.0 0.00 0.00 0.00 76 1013.8
20211023134545 49 10 3.0 5.0 0.00 0.00 0.00 76 1013.7
20211023133129 49 263 3.0 6.0 0.00 0.00 0.00 78 1013.8
20211023131519 48 17 3.0 6.0 0.00 0.00 0.00 77 1013.7
20211023130044 48 18 4.0 8.0 0.00 0.00 0.00 79 1013.8
20211023124518 48 266 1.0 9.0 0.00 0.00 0.00 78 1013.8
20211023123003 47 10 2.0 5.0 0.00 0.00 0.00 81 1013.7
20211023121628 47 255 2.0 6.0 0.00 0.00 0.00 80 1013.4
20211023120317 47 0.0 0.0 0.00 0.00 0.00 82 1013.4
20211023114607 47 0.0 0.0 0.00 0.00 0.00 81 1013.5
20211023113115 47 0.0 0.0 0.00 0.00 0.00 82 1013.3
20211023111543 47 0.0 0.0 0.00 0.00 0.00 81 1013.2
20211023110036 48 0.0 0.0 0.00 0.00 0.00 82 1013.3
20211023104537 48 0.0 0.0 0.00 0.00 0.00 82 1013.3
20211023103011 48 0.0 0.0 0.00 0.00 0.00 83 1013.1
20211023101752 48 0.0 0.0 0.00 0.00 0.00 82 1013.2
20211023100219 48 0.0 0.0 0.00 0.00 0.00 82 1013.1
20211023094650 48 0.0 0.0 0.00 0.00 0.00 82 1012.8
20211023093116 48 0.0 0.0 0.00 0.00 0.00 82 1012.8
20211023091555 49 0.0 0.0 0.00 0.00 0.00 82 1013.0
20211023090052 49 0.0 0.0 0.00 0.00 0.00 82 1012.9
20211023084607 49 0.0 0.0 0.00 0.00 0.00 82 1012.6
20211023083021 49 0.0 0.0 0.00 0.00 0.00 82 1012.7
20211023081519 49 0.0 0.0 0.00 0.00 0.00 83 1012.6
20211023080132 49 0.0 0.0 0.00 0.00 0.00 83 1012.6
20211023074627 50 0.0 0.0 0.00 0.00 0.00 83 1012.6
20211023073135 50 0.0 0.0 0.00 0.00 0.00 83 1012.6
20211023071614 50 0.0 0.0 0.00 0.00 0.00 83 1012.6
20211023070110 50 0.0 0.0 0.00 0.00 0.00 83 1012.6
20211023064546 50 0.0 0.0 0.00 0.00 0.00 82 1012.5
20211023063044 50 0.0 0.0 0.00 0.00 0.00 83 1012.5
20211023061507 50 0.0 0.0 0.00 0.00 0.00 83 1012.6
20211023060301 50 0.0 0.0 0.00 0.00 0.00 83 1012.7
20211023054621 50 0.0 0.0 0.00 0.00 0.00 84 1012.5
20211023053204 50 0.0 0.0 0.00 0.00 0.00 84 1012.2
20211023051609 49 0.0 0.0 0.00 0.00 0.00 85 1012.3
20211023050038 49 0.0 0.0 0.00 0.00 0.00 87 1012.1
20211023044528 49 0.0 0.0 0.00 0.00 0.00 87 1012.1
20211023043029 48 0.0 0.0 0.00 0.00 0.00 86 1012.2
20211023041509 48 0.0 0.0 0.00 0.00 0.00 88 1012.1
20211023040117 48 0.0 0.0 0.00 0.00 0.00 88 1012.0
20211023034644 49 0.0 0.0 0.00 0.00 0.00 88 1012.1
20211023033219 49 0.0 0.0 0.00 0.00 0.00 88 1012.3
20211023031548 49 0.0 0.0 0.00 0.00 0.00 87 1012.5
20211023030043 50 0.0 0.0 0.00 0.00 0.00 86 1012.3
20211023024537 50 0.0 0.0 0.00 0.00 0.00 85 1012.3
20211023023030 51 0.0 0.0 0.00 0.00 0.00 85 1012.4
20211023021514 51 0.0 0.0 0.00 0.00 0.00 85 1012.3
20211023020004 52 0.0 0.0 0.00 0.00 0.00 84 1012.2
20211023014619 53 0.0 0.0 0.00 0.00 0.00 82 1012.0
20211023013107 54 0.0 0.0 0.00 0.00 0.00 81 1011.9
20211023011604 54 0.0 0.0 0.00 0.00 0.00 81 1012.0
20211023010134 55 0.0 0.0 0.00 0.00 0.00 81 1011.6
20211023004556 55 0.0 0.0 0.00 0.00 0.00 81 1011.5
20211023003204 55 0.0 0.0 0.00 0.00 0.00 81 1011.4
20211023001520 55 0.0 0.0 0.00 0.00 0.00 82 1011.4
20211023000010 56 0.0 0.0 0.00 0.00 0.00 84 1011.6